Wind_Speed
1 4 10 15 16 8 13 5 6 3 3 4 6 7 10 5 3 7 9 8 7 10 13 21 29 28 30 30 32 31 31 31 29 28 25 23 21 18 16 15 13 12 10 10
5 12 7 10 11 11 1 8 10 4 4 2 3 12 6 5 7 8 10 9 12 7 7 17 25 30 31 34 34 34 34 34 33 32 29 25 24 22 16 17 15 13 13 12
8 2 13 8 10 8 6 7 6 5 1 1 2 7 5 5 5 5 7 7 6 12 11 9 19 27 33 35 35 35 36 36 35 34 32 27 24 19 15 16 15 13 13 13
2 4 17 12 14 12 7 11 6 4 6 6 1 6 6 6 9 8 10 9 11 11 8 9 19 25 29 34 34 36 36 36 37 36 33 31 25 20 20 16 16 14 13 11
4 2 14 17 17 15 5 5 5 2 2 3 4 2 7 2 9 7 11 12 13 14 12 14 20 29 27 24 27 30 31 32 34 35 35 34 28 23 18 18 15 14 12 9
3 3 4 7 8 18 9 8 4 2 3 3 11 7 5 9 7 7 10 12 14 12 10 9 19 24 22 20 21 22 26 30 32 33 34 35 29 25 21 20 18 15 12 10
2 3 4 3 7 4 15 10 3 5 2 11 1 5 16 5 9 8 15 17 14 8 9 10 12 21 23 22 22 21 22 26 31 32 33 34 33 29 26 24 22 19 15 12
7 5 9 3 6 5 18 13 6 8 5 6 3 8 7 10 8 7 9 7 6 10 10 12 14 21 24 21 21 22 24 25 26 30 32 35 31 30 26 24 21 18 16 13
7 6 3 4 3 6 5 16 2 4 2 3 5 8 7 7 9 6 10 6 11 11 12 14 14 23 23 20 18 19 21 23 26 27 32 34 31 31 29 25 20 19 18 17
8 3 4 9 5 5 2 5 7 1 2 4 4 5 7 3 11 10 10 13 12 8 9 9 12 19 19 17 17 17 18 21 24 27 29 32 33 32 29 26 23 23 22 20
6 4 3 6 7 11 6 5 4 2 3 4 0 6 7 11 11 12 13 10 8 8 9 9 10 19 18 16 16 16 17 20 24 26 28 32 31 31 29 28 27 26 24 21
6 5 4 6 4 6 9 13 15 7 11 1 1 9 2 8 8 6 8 7 6 7 8 7 12 18 17 17 17 18 19 21 26 28 30 32 34 33 29 29 28 26 24 20
9 3 3 4 3 2 9 7 6 13 2 10 6 10 1 6 7 7 7 6 5 5 7 8 10 14 20 22 21 21 22 24 27 28 32 34 35 32 32 32 29 25 22 19
13 4 7 9 4 7 7 17 14 15 6 12 19 19 9 9 10 5 6 5 6 6 8 8 8 10 15 21 22 22 24 26 28 29 33 36 35 34 34 31 28 25 22 19
6 8 5 1 1 11 9 20 25 21 21 11 30 16 9 9 10 6 4 3 6 7 8 9 8 7 18 22 24 25 27 28 30 32 34 36 35 34 32 29 26 23 21 18
0 3 4 3 6 1 5 14 22 29 28 22 27 29 13 6 4 6 8 8 8 10 13 11 10 14 20 24 26 28 29 31 32 34 36 35 34 33 31 29 26 23 20 17
7 6 3 5 2 2 4 16 14 13 14 22 19 28 8 11 11 10 6 9 12 15 14 13 14 19 24 27 30 30 34 34 34 35 35 35 34 32 29 27 25 23 20 17
13 7 3 3 2 5 7 2 9 16 14 19 22 8 8 15 7 7 8 10 14 12 10 14 18 24 27 26 29 31 34 37 38 37 36 35 34 32 30 27 25 22 19 17
3 9 3 5 3 7 14 5 6 7 15 18 17 14 10 4 1 7 10 13 14 12 15 23 28 25 27 33 36 36 37 39 36 38 41 39 37 34 32 29 26 23 20 19
4 5 8 3 6 9 3 13 9 6 20 11 12 12 14 8 5 12 7 7 12 14 15 18 23 24 27 31 37 38 37 38 38 42 45 42 40 36 34 30 27 24 20 18
3 2 12 6 5 8 8 2 4 10 6 2 4 9 6 8 6 1 6 4 3 8 13 16 22 27 29 32 37 34 34 39 43 45 43 42 39 35 32 29 26 23 21 19
7 7 3 3 8 16 5 6 13 5 2 2 3 2 6 5 6 4 3 5 7 7 5 15 22 22 28 35 39 33 36 36 39 46 44 42 39 35 31 28 26 23 22 19
1 6 7 12 8 2 5 2 3 0 2 2 2 2 3 0 3 4 3 4 5 8 8 8 16 17 23 33 37 31 30 35 40 43 43 42 38 35 32 30 27 24 22 20
2 2 3 3 1 3 3 2 2 2 3 3 2 4 5 4 5 5 5 6 5 6 6 3 9 14 18 27 31 28 27 36 39 38 41 42 39 35 32 29 27 25 24 21
2 5 5 3 0 0 0 1 3 3 2 4 4 3 2 2 4 4 5 5 6 6 5 3 9 14 17 20 25 25 26 33 33 34 38 40 39 37 34 30 29 27 23 20
4 5 4 4 3 3 1 3 2 3 4 6 4 3 3 5 6 4 4 4 5 7 6 4 6 9 12 16 21 23 27 31 35 33 34 36 36 35 32 30 25 24 22 21
Wind_Direction
159 164 202 184 194 140 204 179 230 245 244 187 206 235 243 191 189 219 223 203 215 220 229 220 219 218 220 220 219 217 217 218 215 213 212 214 216 214 222 225 227 235 241 247
131 225 191 164 183 206 111 217 228 294 339 256 191 248 248 191 221 213 214 208 212 213 211 219 216 219 221 222 222 224 223 223 220 220 214 218 219 225 239 241 237 240 246 248
185 210 163 170 184 163 202 217 234 233 123 131 340 286 233 226 228 205 212 222 217 218 214 221 218 217 220 223 226 226 228 227 224 221 220 217 222 224 221 232 234 231 237 240
203 217 178 188 194 178 194 194 209 157 157 230 348 266 261 217 232 208 226 204 225 219 218 211 212 218 219 224 225 228 229 227 226 222 218 218 213 210 216 223 223 221 229 235
176 181 183 195 195 178 191 152 155 157 136 104 231 239 238 122 238 233 235 227 226 223 206 208 207 216 218 223 218 221 223 224 225 223 220 219 217 215 208 207 207 200 197 198
126 289 215 194 169 179 145 91 18 48 119 247 211 198 244 206 196 225 227 230 226 215 210 204 208 209 208 208 208 210 213 217 220 221 219 220 211 203 189 187 187 178 176 168
107 258 304 210 134 127 167 150 173 227 184 234 9 163 239 225 220 213 217 225 227 200 192 190 190 197 204 205 204 207 209 212 215 218 218 217 217 206 201 190 189 180 174 170
158 206 207 222 190 176 193 177 174 188 206 224 108 237 249 225 225 230 246 251 217 196 201 199 196 196 205 210 211 208 214 216 214 217 213 215 212 198 197 193 185 183 180 185
166 242 122 223 167 158 170 198 238 81 29 77 203 280 294 259 273 265 251 245 235 212 204 201 177 195 201 208 216 216 215 218 215 211 210 208 204 193 187 185 183 186 177 175
194 143 203 192 121 60 100 173 208 186 206 234 249 281 232 233 230 227 237 236 236 222 187 179 178 192 199 205 211 213 212 213 209 208 204 201 190 185 179 178 177 180 173 169
152 113 13 133 211 187 143 209 205 321 191 205 227 260 216 205 223 229 231 243 245 204 192 187 169 189 197 200 204 205 203 198 195 199 199 191 179 176 170 173 173 173 169 165
199 122 143 189 333 161 201 203 201 195 207 238 26 255 197 238 275 269 269 248 206 179 172 168 169 179 188 194 198 199 195 193 194 192 187 180 173 170 167 170 168 168 166 163
170 165 83 36 337 75 210 199 168 216 358 239 239 250 237 243 262 257 269 244 225 194 169 159 161 180 190 196 195 193 190 189 189 186 181 174 170 167 167 168 166 166 167 167
157 156 159 186 206 138 189 195 194 190 205 246 253 266 300 300 297 250 214 215 189 196 189 186 189 186 186 193 193 191 190 190 186 184 179 174 171 169 168 167 167 168 170 172
177 205 159 130 188 173 179 192 201 209 217 215 242 243 217 247 274 308 300 184 184 198 207 203 192 169 187 191 196 197 194 187 185 179 177 174 170 168 167 168 169 170 172 173
140 228 119 2 339 243 201 200 202 211 217 226 245 260 256 254 256 240 226 194 211 214 215 204 186 186 195 194 192 194 194 188 184 180 176 171 169 170 170 171 171 173 174 177
149 132 105 224 327 69 320 225 202 213 215 218 230 244 181 227 237 244 241 201 219 219 212 201 196 199 197 196 191 189 193 188 185 183 178 175 175 175 175 174 175 177 179 182
181 125 106 157 87 191 236 273 219 215 221 227 246 241 212 235 245 235 212 209 224 219 196 203 204 205 201 193 192 193 194 191 189 187 183 182 181 180 180 179 180 181 185 187
144 173 125 146 189 294 280 178 148 174 255 228 236 241 229 226 92 273 223 219 226 208 209 211 209 202 190 190 191 191 193 193 191 191 191 189 188 186 184 184 185 187 188 189
73 168 183 125 189 223 333 198 176 119 268 189 203 215 219 146 207 247 252 213 228 222 214 209 204 192 190 190 187 185 188 190 192 195 197 194 193 192 189 189 188 191 191 192
99 77 199 166 224 275 238 178 132 177 258 286 214 225 147 197 211 84 359 13 317 251 232 215 196 190 195 187 187 190 189 196 198 199 198 197 197 195 195 191 192 191 188 190
148 149 179 101 219 255 155 65 189 227 343 65 50 34 217 266 310 314 311 320 334 329 285 211 192 195 192 192 189 193 200 199 196 200 198 197 196 195 194 193 189 190 190 192
189 179 175 189 212 225 190 13 43 344 113 36 85 2 334 66 10 346 350 358 344 331 311 250 207 189 190 196 196 197 202 196 197 198 197 195 194 194 194 192 189 186 191 195
287 199 157 102 219 213 207 97 109 16 107 107 72 49 27 355 353 8 4 358 350 351 341 289 193 185 188 202 206 208 198 200 199 191 194 193 191 190 192 195 194 194 196 199
193 133 154 285 305 184 356 186 106 121 71 86 77 86 79 20 18 19 2 360 347 342 343 251 206 203 209 212 211 209 206 200 189 189 190 190 192 191 191 196 198 202 210 218
183 174 179 217 169 118 81 60 78 100 70 44 64 72 40 48 39 21 7 352 342 331 322 271 228 226 224 220 216 211 208 201 195 184 185 185 187 191 194 196 199 210 219 228
Height
810 815 814 813 813 816 817 832 834 822 818 817 821 819 814 818 822 824 826 824 826 827 826 829 832 833 837 840 842 845 850 852 856 859 863 866 868 871 873 875 876 878 880 881
815 809 810 812 817 815 826 828 828 822 823 824 818 817 817 820 818 818 817 822 820 824 824 824 826 829 832 834 836 841 844 848 852 856 858 863 865 868 870 872 874 876 877 879
801 801 805 810 812 817 829 833 830 826 827 826 825 821 815 812 815 812 814 816 817 816 818 820 821 822 826 828 831 835 838 842 846 850 855 859 863 864 867 869 870 873 874 875
805 797 802 809 813 816 825 823 824 828 827 837 831 837 817 815 812 810 809 813 812 813 812 812 815 817 819 821 825 830 832 836 840 844 848 853 856 859 862 866 868 868 871 872
801 802 806 806 804 812 815 815 820 825 827 829 834 841 804 814 813 809 807 805 803 803 804 806 808 810 814 819 820 824 828 831 835 840 843 847 852 854 858 862 865 867 868 870
804 808 800 796 801 806 811 823 832 835 836 842 820 835 816 802 804 799 794 796 792 796 798 800 804 808 810 814 816 819 822 825 829 834 839 842 846 850 854 858 862 864 867 868
809 807 807 798 802 805 806 817 843 846 848 821 834 837 787 783 790 785 781 781 784 791 795 795 799 802 806 809 811 815 818 821 823 828 833 838 841 845 851 853 856 860 864 866
797 806 808 795 791 800 799 805 830 832 834 812 834 817 787 781 780 782 784 780 783 788 789 789 792 797 801 806 808 809 814 817 821 824 827 833 836 839 846 851 854 858 861 865
794 795 798 799 793 793 806 805 805 822 878 840 819 803 786 781 781 782 783 784 781 779 781 781 785 791 795 801 805 807 809 812 817 821 823 827 831 834 841 847 851 858 860 864
784 790 792 796 792 800 808 808 820 820 833 831 810 810 785 778 775 774 778 777 773 776 778 781 784 789 793 797 800 803 805 808 812 818 820 823 828 832 836 843 848 854 858 860
777 781 796 793 792 795 811 811 808 809 815 817 815 792 781 766 766 762 762 762 766 770 773 778 781 786 792 795 798 801 803 805 809 814 818 821 825 830 833 840 845 851 856 857
772 787 804 794 790 790 794 795 795 806 810 825 817 779 764 771 770 767 765 766 769 769 773 777 781 783 789 792 796 799 801 804 808 810 813 819 822 828 831 839 845 850 854 856
762 780 812 798 793 794 797 795 794 802 810 802 808 770 762 771 767 763 765 768 771 773 773 775 779 781 784 788 793 796 799 802 806 809 812 817 821 824 829 837 843 848 853 856
750 769 772 778 768 788 795 793 795 797 807 797 789 767 766 759 756 755 764 768 770 773 772 773 775 776 782 787 792 794 797 800 803 808 811 816 820 823 830 836 840 843 848 852
753 760 765 765 764 765 773 777 783 786 772 784 749 773 770 764 757 755 757 765 769 771 772 773 774 777 785 786 788 792 796 798 803 805 809 814 818 824 830 835 839 843 846 850
758 779 766 789 776 764 768 771 766 762 757 763 755 755 753 758 755 756 756 764 765 764 764 766 768 775 779 779 782 789 795 797 801 804 807 813 819 824 828 832 836 841 844 847
756 775 788 789 796 783 789 760 765 760 751 745 759 730 749 750 752 749 752 758 756 753 755 761 765 768 771 774 777 784 791 796 800 804 808 812 818 824 828 831 835 839 842 844
739 767 783 798 799 780 750 750 747 748 738 740 736 738 744 739 742 744 745 747 746 747 752 753 755 759 762 768 774 782 789 793 796 801 806 812 816 821 826 828 832 836 840 842
737 744 774 784 818 766 738 745 751 751 734 734 737 737 740 742 741 739 735 732 731 735 736 737 741 748 755 759 767 775 783 788 793 797 800 806 812 817 821 825 828 833 836 839
742 738 743 784 766 783 732 731 738 738 729 726 731 733 733 743 749 729 723 727 725 727 729 732 736 743 749 754 760 767 774 779 784 789 793 800 807 812 816 821 825 829 833 836
760 757 738 750 762 763 739 729 734 747 728 732 723 722 734 731 724 729 727 725 727 727 729 730 733 736 742 750 756 761 765 766 774 783 789 797 804 809 814 819 823 826 829 834
737 747 758 774 754 741 734 740 733 723 726 724 725 727 731 727 729 731 729 727 728 728 727 727 729 732 736 741 747 753 756 763 770 776 783 791 798 804 810 815 819 823 826 831
728 727 741 729 724 724 732 729 731 730 728 731 730 733 732 728 731 733 733 731 731 730 729 729 729 732 736 740 744 748 753 760 765 773 778 786 794 800 806 810 815 819 824 827
736 731 735 732 729 726 731 732 732 733 733 733 734 733 734 735 735 733 734 734 734 731 730 730 731 734 737 739 743 747 751 756 762 769 776 782 789 796 802 807 811 815 819 822
734 730 742 742 731 731 731 732 734 736 735 735 736 736 737 737 736 736 736 735 736 735 733 733 733 734 737 741 744 747 750 755 761 767 772 778 784 791 797 803 806 810 813 816
730 731 728 735 730 731 732 733 735 735 737 739 739 740 740 738 737 738 739 738 737 736 737 736 735 736 739 741 743 745 749 753 757 763 769 775 780 788 793 797 802 806 809 810